Weather History for Tegucigalpa, Honduras

Change the Weather History Date:

Tuesday, August 6, 2013

  Actual Average Record
Temperature  
Mean Temperature 75 °F -  
Max Temperature 86 °F 81 °F 89 °F (2004)
Min Temperature 64 °F 63 °F 59 °F (1996)
Cooling Degree Days 10    
Growing Degree Days 25 (Base 50)    
Moisture  
Dew Point 60 °F    
Average Humidity 62    
Maximum Humidity 94    
Minimum Humidity 26    
Precipitation  
Precipitation 0.00 in 0.14 in - ()
Sea Level Pressure  
Sea Level Pressure 30.07 in    
Wind  
Wind Speed 6 mph ()    
Max Wind Speed 14 mph    
Max Gust Speed -    
Visibility 6.4 miles    
Events      
Averages and records for this station are not official NWS values.
T = Trace of Precipitation, MM = Missing Value Source: Averaged Metar Reports

Daily Weather History Graph

Daily Weather History Graph

Search for Another Location

Airport:

Trip Planner

Search our weather history database for the weather conditions in past years. The results will help you decide how hot, cold, wet, or windy it might be!

Date:

Astronomy

Aug. 06, 2013 Rise Set
Actual Time 5:34 AM CST 6:15 PM CST
Civil Twilight 5:11 AM CST 6:37 PM CST
Nautical Twilight 4:45 AM CST 7:03 PM CST
Astronomical Twilight 4:18 AM CST 7:30 PM CST
Moon 5:15 AM CST (8/6) 6:03 PM CST (8/6)
Length of Visible Light 13h 25m
Length of Day
12h 41m
Waning Crescent, 0% of the Moon is Illuminated
Aug 6
Waning Crescent
Aug 6
New
Aug 14
First Quarter
Aug 20
Full
Aug 28
Last Quarter

Hourly Weather History & Observations

Time (CST) Temp. Heat Index Dew Point Humidity Pressure Visibility Wind Dir Wind Speed Gust Speed Precip Events Conditions
12:00 AM 69 °F - 64 °F 81% 30.03 in 6 mi North 5.8 mph - -   Haze
12:00 AM 68.0 °F - 64.4 °F 88% 30.12 in 6.2 mi North 5.8 mph - N/A   Scattered Clouds
1:00 AM 69.8 °F - 64.4 °F 83% 30.12 in 6.2 mi North 6.9 mph - N/A   Scattered Clouds
2:00 AM 68.0 °F - 64.4 °F 88% 30.09 in 6.2 mi NNW 8.1 mph - N/A   Scattered Clouds
3:00 AM 68 °F - 66 °F 93% 29.99 in 6 mi North 6.9 mph - -   Haze
3:00 AM 68.0 °F - 64.4 °F 88% 30.09 in 6.2 mi North 6.9 mph - N/A   Mostly Cloudy
4:00 AM 66.2 °F - 62.6 °F 88% 30.09 in 6.2 mi North 2.3 mph - N/A   Mostly Cloudy
5:00 AM 66.2 °F - 62.6 °F 88% 30.09 in 6.2 mi NNW 4.6 mph - N/A   Mostly Cloudy
6:00 AM 64 °F - 61 °F 88% 30.05 in 6 mi Calm Calm - -   Mist
6:00 AM 64.4 °F - 60.8 °F 88% 30.12 in 6.2 mi Calm Calm - N/A   Scattered Clouds
7:00 AM 68.0 °F - 66.2 °F 94% 30.12 in 6.2 mi NNW 4.6 mph - N/A   Scattered Clouds
8:00 AM 71.6 °F - 64.4 °F 78% 30.12 in 6.2 mi North 6.9 mph - N/A   Scattered Clouds
9:00 AM 77 °F - 61 °F 47% 29.93 in 6 mi NNE 11.5 mph - -   Haze
9:00 AM 77.0 °F - 60.8 °F 57% 30.12 in 6.2 mi NNE 11.5 mph - N/A   Partly Cloudy
10:00 AM 78.8 °F - 57.2 °F 47% 30.15 in 6.2 mi NE 13.8 mph - N/A   Partly Cloudy
11:00 AM 82.4 °F 81.7 °F 55.4 °F 39% 30.12 in 6.2 mi ENE 12.7 mph - N/A   Partly Cloudy
12:00 PM 86 °F - 59 °F 30% 29.91 in 9 mi NNE 11.5 mph - -   Haze
12:00 PM 86.0 °F 85.4 °F 59.0 °F 40% 30.09 in 6.2 mi NNE 11.5 mph - N/A   Partly Cloudy
1:00 PM 86.0 °F 84.5 °F 55.4 °F 35% 30.09 in 6.2 mi NE 9.2 mph - N/A   Partly Cloudy
2:00 PM 86.0 °F 84.2 °F 53.6 °F 33% 30.09 in 6.2 mi East 6.9 mph - N/A   Partly Cloudy
3:00 PM 86 °F - 56 °F 26% 29.86 in 9 mi East 9.2 mph - -   Haze
3:00 PM 86.0 °F 84.9 °F 57.2 °F 37% 30.06 in 6.2 mi East 9.2 mph - N/A   Partly Cloudy
4:00 PM 86.0 °F 84.9 °F 57.2 °F 37% 30.06 in 6.2 mi NE 5.8 mph - N/A   Scattered Clouds
5:00 PM 82.4 °F 81.7 °F 55.4 °F 39% 30.06 in 6.2 mi East 5.8 mph - N/A   Mostly Cloudy
6:00 PM 80 °F - 74 °F 76% 29.90 in 9 mi NE 8.1 mph - -   Haze
6:00 PM 80.6 °F 80.5 °F 55.4 °F 42% 30.06 in 6.2 mi NE 8.1 mph - N/A   Mostly Cloudy
7:00 PM 75.2 °F - 57.2 °F 53% 30.09 in 6.2 mi East 5.8 mph - N/A   Scattered Clouds
8:00 PM 73.4 °F - 59.0 °F 61% 30.12 in 6.2 mi East 4.6 mph - N/A   Scattered Clouds
9:00 PM 72 °F - 56 °F 47% 30.01 in 6 mi NE 4.6 mph - -   Scattered Clouds
9:00 PM 71.6 °F - 55.4 °F 57% 30.15 in 6.2 mi NE 4.6 mph - N/A   Partly Cloudy
10:00 PM 68.0 °F - 59.0 °F 73% 30.15 in 6.2 mi South 4.6 mph - N/A   Partly Cloudy
11:00 PM 66.2 °F - 57.2 °F 73% 30.15 in 6.2 mi Calm Calm - N/A   Partly Cloudy